| time (UTC) | temp F | wind direction | speed MPH | gust MPH | rain 1hr in | rain 24hr in | rain mn in | humidity % | barometer mb |
| 20260504050346 | 54 | 54 | 28.0 | 37.0 | 0.00 | 0.00 | 0.00 | 37 | 1013.7 |
| 20260504045843 | 54 | 49 | 27.0 | 38.0 | 0.00 | 0.00 | 0.00 | 38 | 1013.6 |
| 20260504045338 | 55 | 47 | 34.0 | 38.0 | 0.00 | 0.00 | 0.00 | 38 | 1013.4 |
| 20260504044836 | 55 | 49 | 29.0 | 38.0 | 0.00 | 0.00 | 0.00 | 38 | 1013.2 |
| 20260504044333 | 56 | 43 | 20.0 | 38.0 | 0.00 | 0.00 | 0.00 | 40 | 1013.2 |
| 20260504043830 | 56 | 38 | 28.0 | 36.0 | 0.00 | 0.00 | 0.00 | 39 | 1012.8 |
| 20260504043327 | 57 | 40 | 24.0 | 33.0 | 0.00 | 0.00 | 0.00 | 38 | 1012.7 |
| 20260504042824 | 57 | 46 | 19.0 | 26.0 | 0.00 | 0.00 | 0.00 | 38 | 1012.4 |
| 20260504042320 | 57 | 35 | 19.0 | 26.0 | 0.00 | 0.00 | 0.00 | 38 | 1012.1 |
| 20260504041817 | 57 | 48 | 18.0 | 26.0 | 0.00 | 0.00 | 0.00 | 38 | 1012.0 |
| 20260504041313 | 57 | 37 | 16.0 | 24.0 | 0.00 | 0.00 | 0.00 | 38 | 1012.1 |
| 20260504040809 | 57 | 41 | 15.0 | 19.0 | 0.00 | 0.00 | 0.00 | 38 | 1011.9 |
| 20260504040307 | 57 | 41 | 19.0 | 23.0 | 0.00 | 0.00 | 0.00 | 38 | 1011.9 |
| 20260504035803 | 57 | 33 | 19.0 | 21.0 | 0.00 | 0.00 | 0.00 | 38 | 1011.8 |
| 20260504035300 | 57 | 50 | 11.0 | 20.0 | 0.00 | 0.00 | 0.00 | 37 | 1011.7 |
| 20260504034757 | 58 | 38 | 15.0 | 23.0 | 0.00 | 0.00 | 0.00 | 37 | 1011.5 |
| 20260504034255 | 58 | 45 | 19.0 | 21.0 | 0.00 | 0.00 | 0.00 | 36 | 1011.3 |
| 20260504033752 | 58 | 41 | 16.0 | 23.0 | 0.00 | 0.00 | 0.00 | 36 | 1011.3 |
| 20260504033249 | 59 | 39 | 17.0 | 23.0 | 0.00 | 0.00 | 0.00 | 36 | 1011.2 |
| 20260504032746 | 59 | 53 | 22.0 | 25.0 | 0.00 | 0.00 | 0.00 | 35 | 1011.1 |
| 20260504032243 | 59 | 44 | 21.0 | 25.0 | 0.00 | 0.00 | 0.00 | 35 | 1010.8 |
| 20260504031740 | 59 | 51 | 17.0 | 23.0 | 0.00 | 0.00 | 0.00 | 35 | 1010.9 |
| 20260504031237 | 60 | 45 | 19.0 | 27.0 | 0.00 | 0.00 | 0.00 | 35 | 1011.0 |
| 20260504030733 | 60 | 47 | 21.0 | 29.0 | 0.00 | 0.00 | 0.00 | 34 | 1011.0 |
| 20260504030230 | 60 | 45 | 20.0 | 28.0 | 0.00 | 0.00 | 0.00 | 34 | 1010.7 |
| 20260504025727 | 61 | 38 | 17.0 | 27.0 | 0.00 | 0.00 | 0.00 | 33 | 1010.8 |
| 20260504025224 | 61 | 37 | 23.0 | 27.0 | 0.00 | 0.00 | 0.00 | 33 | 1010.7 |
| 20260504024721 | 62 | 44 | 20.0 | 28.0 | 0.00 | 0.00 | 0.00 | 32 | 1010.5 |
| 20260504024217 | 62 | 40 | 19.0 | 26.0 | 0.00 | 0.00 | 0.00 | 30 | 1010.5 |
| 20260504023714 | 62 | 39 | 17.0 | 20.0 | 0.00 | 0.00 | 0.00 | 30 | 1010.7 |
| 20260504023210 | 63 | 44 | 18.0 | 20.0 | 0.00 | 0.00 | 0.00 | 29 | 1010.5 |
| 20260504022706 | 64 | 39 | 17.0 | 20.0 | 0.00 | 0.00 | 0.00 | 28 | 1010.7 |
| 20260504022203 | 64 | 38 | 13.0 | 18.0 | 0.00 | 0.00 | 0.00 | 27 | 1010.7 |
| 20260504021700 | 65 | 31 | 14.0 | 19.0 | 0.00 | 0.00 | 0.00 | 26 | 1010.5 |
| 20260504021157 | 65 | 26 | 9.0 | 12.0 | 0.00 | 0.00 | 0.00 | 23 | 1010.6 |
| 20260504020654 | 66 | 19 | 8.0 | 11.0 | 0.00 | 0.00 | 0.00 | 23 | 1010.5 |
| 20260504020149 | 66 | 16 | 9.0 | 10.0 | 0.00 | 0.00 | 0.00 | 22 | 1010.5 |
| 20260504015646 | 67 | 14 | 6.0 | 11.0 | 0.00 | 0.00 | 0.00 | 21 | 1010.5 |
| 20260504015137 | 68 | 3 | 9.0 | 14.0 | 0.00 | 0.00 | 0.00 | 21 | 1010.7 |
| 20260504014633 | 68 | 5 | 8.0 | 13.0 | 0.00 | 0.00 | 0.00 | 21 | 1010.6 |
| 20260504014130 | 69 | 7 | 13.0 | 15.0 | 0.00 | 0.00 | 0.00 | 20 | 1010.6 |
| 20260504013628 | 70 | 354 | 8.0 | 16.0 | 0.00 | 0.00 | 0.00 | 20 | 1010.7 |
| 20260504013124 | 71 | 358 | 10.0 | 15.0 | 0.00 | 0.00 | 0.00 | 19 | 1010.9 |
| 20260504012622 | 71 | 5 | 12.0 | 15.0 | 0.00 | 0.00 | 0.00 | 19 | 1010.7 |
| 20260504012120 | 71 | 359 | 9.0 | 15.0 | 0.00 | 0.00 | 0.00 | 19 | 1010.8 |
| 20260504011616 | 71 | 8 | 13.0 | 17.0 | 0.00 | 0.00 | 0.00 | 19 | 1010.8 |
| 20260504011113 | 71 | 357 | 13.0 | 19.0 | 0.00 | 0.00 | 0.00 | 19 | 1010.7 |
| 20260504010609 | 72 | 2 | 9.0 | 19.0 | 0.00 | 0.00 | 0.00 | 19 | 1010.7 |
| 20260504010105 | 72 | 343 | 16.0 | 20.0 | 0.00 | 0.00 | 0.00 | 19 | 1010.5 |
| 20260504005602 | 72 | 347 | 17.0 | 19.0 | 0.00 | 0.00 | 0.00 | 19 | 1010.8 |
| 20260504005059 | 72 | 350 | 15.0 | 22.0 | 0.00 | 0.00 | 0.00 | 19 | 1010.7 |
| 20260504004557 | 73 | 341 | 10.0 | 21.0 | 0.00 | 0.00 | 0.00 | 19 | 1010.8 |
| 20260504004054 | 73 | 326 | 13.0 | 20.0 | 0.00 | 0.00 | 0.00 | 19 | 1010.9 |
| 20260504003549 | 73 | 344 | 12.0 | 21.0 | 0.00 | 0.00 | 0.00 | 19 | 1010.9 |
| 20260504003046 | 73 | 335 | 16.0 | 21.0 | 0.00 | 0.00 | 0.00 | 19 | 1010.8 |
| 20260504002543 | 72 | 336 | 21.0 | 23.0 | 0.00 | 0.00 | 0.00 | 19 | 1010.9 |
| 20260504002041 | 73 | 352 | 16.0 | 18.0 | 0.00 | 0.00 | 0.00 | 19 | 1011.0 |
| 20260504001538 | 73 | 333 | 23.0 | 24.0 | 0.00 | 0.00 | 0.00 | 19 | 1011.1 |
| 20260504001034 | 73 | 326 | 17.0 | 23.0 | 0.00 | 0.00 | 0.00 | 19 | 1011.2 |
| 20260504000532 | 73 | 347 | 19.0 | 28.0 | 0.00 | 0.00 | 0.00 | 18 | 1011.1 |
| 20260504000029 | 73 | 317 | 22.0 | 28.0 | 0.00 | 0.00 | 0.00 | 19 | 1011.0 |
| 20260503235527 | 74 | 350 | 15.0 | 18.0 | 0.00 | 0.00 | 0.00 | 19 | 1011.1 |
| 20260503235024 | 73 | 347 | 17.0 | 25.0 | 0.00 | 0.00 | 0.00 | 19 | 1011.0 |
| 20260503234521 | 74 | 331 | 24.0 | 30.0 | 0.00 | 0.00 | 0.00 | 19 | 1011.1 |
| 20260503234020 | 73 | 321 | 12.0 | 18.0 | 0.00 | 0.00 | 0.00 | 19 | 1011.1 |
| 20260503233515 | 73 | 322 | 16.0 | 23.0 | 0.00 | 0.00 | 0.00 | 19 | 1011.3 |
| 20260503233012 | 73 | 4 | 12.0 | 17.0 | 0.00 | 0.00 | 0.00 | 19 | 1010.9 |
| 20260503232509 | 74 | 334 | 17.0 | 24.0 | 0.00 | 0.00 | 0.00 | 19 | 1011.1 |
| 20260503232006 | 73 | 320 | 22.0 | 27.0 | 0.00 | 0.00 | 0.00 | 19 | 1011.2 |
| 20260503231504 | 73 | 298 | 19.0 | 20.0 | 0.00 | 0.00 | 0.00 | 19 | 1011.1 |
| 20260503231000 | 73 | 324 | 11.0 | 28.0 | 0.00 | 0.00 | 0.00 | 19 | 1011.2 |
| 20260503230457 | 73 | 293 | 12.0 | 21.0 | 0.00 | 0.00 | 0.00 | 19 | 1011.2 |
| 20260503225954 | 73 | 306 | 19.0 | 26.0 | 0.00 | 0.00 | 0.00 | 19 | 1011.0 |
| 20260503225451 | 74 | 308 | 22.0 | 28.0 | 0.00 | 0.00 | 0.00 | 18 | 1011.3 |
| 20260503224946 | 73 | 323 | 19.0 | 20.0 | 0.00 | 0.00 | 0.00 | 19 | 1011.3 |
| 20260503224444 | 75 | 323 | 20.0 | 23.0 | 0.00 | 0.00 | 0.00 | 19 | 1011.3 |
| 20260503223942 | 73 | 303 | 11.0 | 19.0 | 0.00 | 0.00 | 0.00 | 19 | 1011.5 |
| 20260503223439 | 74 | 294 | 12.0 | 29.0 | 0.00 | 0.00 | 0.00 | 19 | 1011.6 |
| 20260503222934 | 73 | 304 | 11.0 | 18.0 | 0.00 | 0.00 | 0.00 | 19 | 1011.5 |
| 20260503222433 | 73 | 309 | 11.0 | 19.0 | 0.00 | 0.00 | 0.00 | 19 | 1011.6 |
| 20260503221931 | 73 | 342 | 14.0 | 21.0 | 0.00 | 0.00 | 0.00 | 19 | 1011.5 |
| 20260503221429 | 73 | 326 | 17.0 | 25.0 | 0.00 | 0.00 | 0.00 | 19 | 1011.8 |
| 20260503220926 | 74 | 277 | 19.0 | 28.0 | 0.00 | 0.00 | 0.00 | 18 | 1011.7 |
| 20260503220422 | 75 | 299 | 17.0 | 29.0 | 0.00 | 0.00 | 0.00 | 19 | 1011.8 |
| 20260503215919 | 73 | 284 | 15.0 | 19.0 | 0.00 | 0.00 | 0.00 | 19 | 1011.9 |
| 20260503215416 | 73 | 293 | 21.0 | 26.0 | 0.00 | 0.00 | 0.00 | 19 | 1011.9 |
| 20260503214914 | 73 | 299 | 16.0 | 21.0 | 0.00 | 0.00 | 0.00 | 19 | 1011.9 |
| 20260503214411 | 73 | 327 | 11.0 | 18.0 | 0.00 | 0.00 | 0.00 | 20 | 1011.9 |
| 20260503213909 | 72 | 296 | 10.0 | 21.0 | 0.00 | 0.00 | 0.00 | 20 | 1012.1 |
| 20260503213406 | 73 | 315 | 9.0 | 20.0 | 0.00 | 0.00 | 0.00 | 21 | 1012.0 |
| 20260503212903 | 73 | 301 | 10.0 | 20.0 | 0.00 | 0.00 | 0.00 | 20 | 1012.2 |
| 20260503212400 | 72 | 325 | 15.0 | 23.0 | 0.00 | 0.00 | 0.00 | 20 | 1012.2 |
| 20260503211857 | 72 | 320 | 19.0 | 24.0 | 0.00 | 0.00 | 0.00 | 20 | 1012.2 |
| 20260503211354 | 73 | 303 | 15.0 | 21.0 | 0.00 | 0.00 | 0.00 | 20 | 1012.4 |
| 20260503210849 | 73 | 328 | 15.0 | 23.0 | 0.00 | 0.00 | 0.00 | 20 | 1012.4 |
| 20260503210347 | 73 | 311 | 23.0 | 26.0 | 0.00 | 0.00 | 0.00 | 20 | 1012.7 |
| 20260503205842 | 72 | 357 | 8.0 | 17.0 | 0.00 | 0.00 | 0.00 | 21 | 1012.7 |
| 20260503205339 | 72 | 304 | 18.0 | 27.0 | 0.00 | 0.00 | 0.00 | 20 | 1012.9 |
| 20260503204835 | 71 | 330 | 10.0 | 19.0 | 0.00 | 0.00 | 0.00 | 21 | 1012.8 |
| 20260503204332 | 72 | 305 | 7.0 | 14.0 | 0.00 | 0.00 | 0.00 | 20 | 1012.9 |
| 20260503203829 | 73 | 259 | 15.0 | 17.0 | 0.00 | 0.00 | 0.00 | 20 | 1012.8 |
| 20260503203327 | 71 | 326 | 15.0 | 23.0 | 0.00 | 0.00 | 0.00 | 20 | 1012.9 |
| 20260503202824 | 71 | 356 | 17.0 | 21.0 | 0.00 | 0.00 | 0.00 | 20 | 1013.0 |
| 20260503202322 | 71 | 291 | 21.0 | 26.0 | 0.00 | 0.00 | 0.00 | 20 | 1013.1 |
| 20260503201820 | 71 | 294 | 14.0 | 21.0 | 0.00 | 0.00 | 0.00 | 20 | 1013.1 |
| 20260503201316 | 71 | 1 | 8.0 | 19.0 | 0.00 | 0.00 | 0.00 | 21 | 1013.3 |
| 20260503200814 | 70 | 276 | 8.0 | 16.0 | 0.00 | 0.00 | 0.00 | 21 | 1013.2 |
| 20260503200310 | 71 | 336 | 14.0 | 27.0 | 0.00 | 0.00 | 0.00 | 20 | 1013.3 |
| 20260503195807 | 70 | 272 | 11.0 | 11.0 | 0.00 | 0.00 | 0.00 | 21 | 1013.6 |
| 20260503195304 | 70 | 304 | 20.0 | 25.0 | 0.00 | 0.00 | 0.00 | 21 | 1013.6 |
| 20260503194801 | 73 | 346 | 18.0 | 21.0 | 0.00 | 0.00 | 0.00 | 19 | 1013.6 |
| 20260503194256 | 70 | 321 | 16.0 | 23.0 | 0.00 | 0.00 | 0.00 | 21 | 1013.7 |
| 20260503193753 | 71 | 316 | 10.0 | 15.0 | 0.00 | 0.00 | 0.00 | 21 | 1013.8 |
| 20260503193249 | 72 | 298 | 18.0 | 29.0 | 0.00 | 0.00 | 0.00 | 19 | 1013.8 |
| 20260503192745 | 70 | 347 | 13.0 | 19.0 | 0.00 | 0.00 | 0.00 | 20 | 1013.8 |
| 20260503192240 | 71 | 310 | 10.0 | 18.0 | 0.00 | 0.00 | 0.00 | 21 | 1013.8 |
| 20260503191737 | 69 | 313 | 13.0 | 27.0 | 0.00 | 0.00 | 0.00 | 20 | 1014.0 |
| 20260503191234 | 71 | 330 | 16.0 | 23.0 | 0.00 | 0.00 | 0.00 | 20 | 1013.9 |
| 20260503190731 | 71 | 282 | 13.0 | 21.0 | 0.00 | 0.00 | 0.00 | 20 | 1014.0 |
| 20260503190228 | 69 | 343 | 5.0 | 10.0 | 0.00 | 0.00 | 0.00 | 22 | 1014.1 |
| 20260503185725 | 69 | 315 | 10.0 | 15.0 | 0.00 | 0.00 | 0.00 | 22 | 1014.2 |
| 20260503185221 | 69 | 306 | 23.0 | 23.0 | 0.00 | 0.00 | 0.00 | 22 | 1014.2 |
| 20260503184715 | 70 | 331 | 15.0 | 16.0 | 0.00 | 0.00 | 0.00 | 21 | 1014.2 |
| 20260503184212 | 69 | 312 | 9.0 | 23.0 | 0.00 | 0.00 | 0.00 | 21 | 1014.4 |
| 20260503183709 | 70 | 314 | 14.0 | 18.0 | 0.00 | 0.00 | 0.00 | 21 | 1014.4 |
| 20260503183206 | 70 | 307 | 9.0 | 22.0 | 0.00 | 0.00 | 0.00 | 21 | 1014.4 |
| 20260503182704 | 69 | 315 | 10.0 | 17.0 | 0.00 | 0.00 | 0.00 | 22 | 1014.8 |
| 20260503182202 | 71 | 300 | 15.0 | 21.0 | 0.00 | 0.00 | 0.00 | 21 | 1014.3 |
| 20260503181658 | 71 | 306 | 13.0 | 22.0 | 0.00 | 0.00 | 0.00 | 21 | 1014.5 |
| 20260503181155 | 69 | 347 | 11.0 | 15.0 | 0.00 | 0.00 | 0.00 | 22 | 1014.7 |
| 20260503180652 | 70 | 293 | 11.0 | 18.0 | 0.00 | 0.00 | 0.00 | 22 | 1014.9 |
| 20260503180150 | 69 | 247 | 13.0 | 16.0 | 0.00 | 0.00 | 0.00 | 23 | 1014.5 |
| 20260503175647 | 68 | 266 | 15.0 | 24.0 | 0.00 | 0.00 | 0.00 | 21 | 1014.8 |
| 20260503175144 | 70 | 302 | 15.0 | 27.0 | 0.00 | 0.00 | 0.00 | 21 | 1015.0 |
| 20260503174640 | 69 | 287 | 9.0 | 20.0 | 0.00 | 0.00 | 0.00 | 23 | 1015.1 |
| 20260503174138 | 69 | 285 | 13.0 | 19.0 | 0.00 | 0.00 | 0.00 | 23 | 1015.0 |
| 20260503173632 | 70 | 305 | 20.0 | 24.0 | 0.00 | 0.00 | 0.00 | 23 | 1015.0 |
| 20260503173129 | 68 | 331 | 13.0 | 18.0 | 0.00 | 0.00 | 0.00 | 23 | 1015.1 |
| 20260503172627 | 69 | 319 | 17.0 | 22.0 | 0.00 | 0.00 | 0.00 | 23 | 1015.2 |
| 20260503172124 | 68 | 278 | 15.0 | 20.0 | 0.00 | 0.00 | 0.00 | 22 | 1015.2 |
| 20260503171620 | 69 | 325 | 11.0 | 19.0 | 0.00 | 0.00 | 0.00 | 22 | 1015.1 |
| 20260503171117 | 70 | 296 | 15.0 | 20.0 | 0.00 | 0.00 | 0.00 | 22 | 1015.1 |
| 20260503170615 | 70 | 343 | 18.0 | 19.0 | 0.00 | 0.00 | 0.00 | 21 | 1015.3 |
| 20260503170111 | 68 | 307 | 13.0 | 20.0 | 0.00 | 0.00 | 0.00 | 23 | 1015.4 |
| 20260503151000 | 59 | 251 | 9.0 | 16.0 | 0.00 | 0.00 | 0.00 | 48 | 1015.8 |
| 20260503150457 | 59 | 260 | 9.0 | 14.0 | 0.00 | 0.00 | 0.00 | 50 | 1016.0 |
| 20260503131350 | 48 | 41 | 0.0 | 1.0 | 0.00 | 0.00 | 0.00 | 71 | 1016.4 |
| 20260503130847 | 49 | 88 | 1.0 | 2.0 | 0.00 | 0.00 | 0.00 | 68 | 1016.2 |
| 20260503130345 | 49 | 98 | 1.0 | 2.0 | 0.00 | 0.00 | 0.00 | 69 | 1016.3 |
| 20260503110739 | 42 | 5 | 2.0 | 4.0 | 0.00 | 0.00 | 0.00 | 81 | 1017.3 |
| 20260503110236 | 42 | 6 | 1.0 | 3.0 | 0.00 | 0.00 | 0.00 | 80 | 1017.3 |
| 20260503100202 | 41 | 339 | 6.0 | 6.0 | 0.00 | 0.00 | 0.00 | 80 | 1017.5 |
| 20260503090121 | 42 | 64 | 0.0 | 3.0 | 0.00 | 0.00 | 0.00 | 77 | 1017.9 |
| 20260503081556 | 46 | 102 | 0.0 | 0.0 | 0.00 | 0.00 | 0.00 | 71 | 1018.1 |
| 20260503081053 | 46 | 160 | 1.0 | 2.0 | 0.00 | 0.00 | 0.00 | 74 | 1018.0 |
| 20260503080549 | 43 | 83 | 2.0 | 4.0 | 0.00 | 0.00 | 0.00 | 73 | 1018.4 |
| 20260503072523 | 45 | 81 | 5.0 | 5.0 | 0.00 | 0.00 | 0.00 | 67 | 1018.5 |
| 20260503072020 | 46 | 74 | 4.0 | 4.0 | 0.00 | 0.00 | 0.00 | 70 | 1018.2 |
| 20260503071512 | 47 | 62 | 4.0 | 4.0 | 0.00 | 0.00 | 0.00 | 68 | 1018.4 |
| 20260503071008 | 48 | 83 | 4.0 | 4.0 | 0.00 | 0.00 | 0.00 | 68 | 1018.3 |
| 20260503070505 | 47 | 80 | 3.0 | 5.0 | 0.00 | 0.00 | 0.00 | 68 | 1018.4 |